2021-01-02 00:07:46 r, 17.16m,0000000012Hz,0000040223c,0000000.087s, 008.0C,00002191
2021-01-02 00:17:44 r, 17.08m,0000000013Hz,0000037369c,0000000.081s, 008.0C,00002191
2021-01-02 00:27:44 r, 17.02m,0000000013Hz,0000035383c,0000000.077s, 008.3C,00002191
2021-01-02 00:37:47 r, 16.98m,0000000013Hz,0000034130c,0000000.074s, 008.3C,00002191
2021-01-02 00:47:44 r, 16.98m,0000000013Hz,0000034092c,0000000.074s, 008.7C,00002191
2021-01-02 00:57:44 r, 16.94m,0000000014Hz,0000032970c,0000000.072s, 008.7C,00002191
2021-01-02 01:07:47 r, 16.95m,0000000014Hz,0000033059c,0000000.072s, 008.7C,00002191
2021-01-02 01:17:45 r, 16.93m,0000000014Hz,0000032355c,0000000.070s, 008.7C,00002191
2021-01-02 01:27:44 r, 16.83m,0000000016Hz,0000029507c,0000000.064s, 008.7C,00002191
2021-01-02 01:37:45 r, 16.78m,0000000016Hz,0000028369c,0000000.062s, 008.7C,00002191
2021-01-02 01:47:44 r, 16.77m,0000000016Hz,0000027868c,0000000.060s, 009.0C,00002191
2021-01-02 01:57:44 r, 16.71m,0000000017Hz,0000026314c,0000000.057s, 009.0C,00002191
2021-01-02 02:07:45 r, 16.79m,0000000016Hz,0000028343c,0000000.062s, 009.0C,00002191
2021-01-02 02:17:47 r, 16.69m,0000000018Hz,0000025944c,0000000.056s, 009.0C,00002191
2021-01-02 02:27:44 r, 16.69m,0000000018Hz,0000025978c,0000000.056s, 008.7C,00002191
2021-01-02 02:37:46 r, 16.69m,0000000018Hz,0000025860c,0000000.056s, 008.7C,00002191
2021-01-02 02:47:46 r, 16.76m,0000000017Hz,0000027673c,0000000.060s, 008.7C,00002191
2021-01-02 02:57:44 r, 16.64m,0000000019Hz,0000024758c,0000000.054s, 008.7C,00002191
2021-01-02 03:07:47 r, 16.67m,0000000018Hz,0000025502c,0000000.055s, 008.7C,00002191
2021-01-02 03:17:45 r, 16.52m,0000000021Hz,0000022179c,0000000.048s, 008.7C,00002191
2021-01-02 03:27:44 r, 16.54m,0000000020Hz,0000022702c,0000000.049s, 008.7C,00002191
2021-01-02 03:37:45 r, 16.54m,0000000020Hz,0000022724c,0000000.049s, 008.7C,00002191
2021-01-02 03:47:46 r, 16.62m,0000000019Hz,0000024196c,0000000.053s, 008.7C,00002191
2021-01-02 03:57:44 r, 16.66m,0000000018Hz,0000025304c,0000000.055s, 008.3C,00002191
2021-01-02 04:07:46 r, 16.63m,0000000018Hz,0000024603c,0000000.053s, 008.3C,00002191
2021-01-02 04:17:45 r, 16.57m,0000000020Hz,0000023403c,0000000.051s, 008.3C,00002191
2021-01-02 04:27:44 r, 16.64m,0000000019Hz,0000024705c,0000000.054s, 008.3C,00002191
2021-01-02 04:37:46 r, 16.58m,0000000020Hz,0000023462c,0000000.051s, 008.3C,00002191
2021-01-02 04:47:45 r, 16.72m,0000000018Hz,0000026666c,0000000.058s, 008.3C,00002191
2021-01-02 04:57:44 r, 16.64m,0000000019Hz,0000024936c,0000000.054s, 008.3C,00002191
2021-01-02 05:07:47 r, 16.79m,0000000016Hz,0000028663c,0000000.062s, 008.3C,00002191
2021-01-02 05:17:45 r, 16.77m,0000000016Hz,0000028055c,0000000.061s, 008.0C,00002191
2021-01-02 05:27:45 r, 17.06m,0000000013Hz,0000036798c,0000000.080s, 008.0C,00002191
2021-01-02 05:37:47 r, 16.94m,0000000014Hz,0000032733c,0000000.071s, 008.0C,00002191
2021-01-02 05:47:45 r, 16.86m,0000000015Hz,0000030500c,0000000.066s, 008.0C,00002191
2021-01-02 05:57:44 r, 16.90m,0000000015Hz,0000031659c,0000000.069s, 008.0C,00002191
2021-01-02 06:07:45 r, 17.00m,0000000014Hz,0000034667c,0000000.075s, 008.0C,00002191
2021-01-02 06:17:46 r, 16.97m,0000000013Hz,0000033558c,0000000.073s, 008.0C,00002191
2021-01-02 06:27:44 r, 17.00m,0000000013Hz,0000034610c,0000000.075s, 008.0C,00002191
2021-01-02 06:37:46 r, 17.09m,0000000012Hz,0000037831c,0000000.082s, 008.0C,00002191
2021-01-02 06:47:45 r, 16.90m,0000000015Hz,0000031664c,0000000.069s, 008.0C,00002191
2021-01-02 06:57:44 r, 16.90m,0000000014Hz,0000031704c,0000000.069s, 008.0C,00002191
2021-01-02 07:07:46 r, 16.98m,0000000013Hz,0000034299c,0000000.074s, 008.0C,00002191
2021-01-02 07:17:45 r, 16.65m,0000000018Hz,0000025193c,0000000.055s, 008.3C,00002191
2021-01-02 07:27:44 r, 16.18m,0000000029Hz,0000016203c,0000000.035s, 008.3C,00002191
2021-01-02 07:37:47 r, 14.93m,0000000089Hz,0000005130c,0000000.011s, 008.3C,00002191
2021-01-02 07:47:45 r, 13.31m,0000000403Hz,0000000000c,0000000.000s, 008.3C,00002191
2021-01-02 07:57:44 r, 11.50m,0000002124Hz,0000000000c,0000000.000s, 008.0C,00002191
2021-01-02 08:07:47 r, 09.76m,0000010584Hz,0000000000c,0000000.000s, 008.3C,00002191
2021-01-02 08:17:45 r, 08.33m,0000039279Hz,0000000000c,0000000.000s, 008.0C,00002191
2021-01-02 08:27:44 r, 07.53m,0000082901Hz,0000000000c,0000000.000s, 008.0C,00002191
2021-01-02 08:37:45 r, 06.71m,0000174370Hz,0000000000c,0000000.000s, 008.3C,00002191
2021-01-02 08:47:46 r, 06.27m,0000261130Hz,0000000000c,0000000.000s, 008.0C,00002191
2021-01-02 08:57:44 r, 05.88m,0000376083Hz,0000000000c,0000000.000s, 008.3C,00002191
2021-01-02 09:07:46 r, 00.00m,0000560264Hz,0000000000c,0000000.000s, 008.3C,00002191
2021-01-02 09:17:45 r, 00.00m,0000598484Hz,0000000000c,0000000.000s, 008.3C,00002191
2021-01-02 09:27:44 r, 00.00m,0000598501Hz,0000000000c,0000000.000s, 008.7C,00002191
2021-01-02 09:37:46 r, 00.00m,0000598485Hz,0000000000c,0000000.000s, 009.0C,00002191
2021-01-02 09:47:45 r, 00.00m,0000598470Hz,0000000000c,0000000.000s, 009.6C,00002191
2021-01-02 09:57:44 r, 00.00m,0000598359Hz,0000000000c,0000000.000s, 010.3C,00002191
2021-01-02 10:07:47 r, 00.00m,0000598378Hz,0000000000c,0000000.000s, 010.6C,00002191
2021-01-02 10:17:45 r, 00.00m,0000598338Hz,0000000000c,0000000.000s, 010.9C,00002191
2021-01-02 10:27:44 r, 00.00m,0000598256Hz,0000000000c,0000000.000s, 010.9C,00002191
2021-01-02 10:37:47 r, 00.00m,0000598244Hz,0000000000c,0000000.000s, 010.6C,00002191
2021-01-02 10:47:45 r, 00.00m,0000598267Hz,0000000000c,0000000.000s, 010.6C,00002191
2021-01-02 10:57:44 r, 00.00m,0000598261Hz,0000000000c,0000000.000s, 010.9C,00002191
2021-01-02 11:07:45 r, 00.00m,0000598332Hz,0000000000c,0000000.000s, 011.6C,00002191
2021-01-02 11:17:45 r, 00.00m,0000598171Hz,0000000000c,0000000.000s, 012.2C,00002191
2021-01-02 11:27:44 r, 00.00m,0000598047Hz,0000000000c,0000000.000s, 013.2C,00002191
2021-01-02 11:37:46 r, 00.00m,0000598071Hz,0000000000c,0000000.000s, 013.2C,00002191
2021-01-02 11:47:45 r, 00.00m,0000597993Hz,0000000000c,0000000.000s, 013.2C,00002191
2021-01-02 11:57:44 r, 00.00m,0000597983Hz,0000000000c,0000000.000s, 014.1C,00002191
2021-01-02 12:07:44 r, 00.00m,0000597999Hz,0000000000c,0000000.000s, 014.5C,00002191
2021-01-02 12:17:45 r, 00.00m,0000598109Hz,0000000000c,0000000.000s, 013.5C,00002191
2021-01-02 12:27:44 r, 00.00m,0000598147Hz,0000000000c,0000000.000s, 012.5C,00002191
2021-01-02 12:37:44 r, 00.00m,0000598215Hz,0000000000c,0000000.000s, 011.9C,00002191
2021-01-02 12:47:45 r, 00.00m,0000598189Hz,0000000000c,0000000.000s, 011.6C,00002191
2021-01-02 12:57:44 r, 00.00m,0000598237Hz,0000000000c,0000000.000s, 011.6C,00002191
2021-01-02 13:07:44 r, 00.00m,0000598161Hz,0000000000c,0000000.000s, 011.9C,00002191
2021-01-02 13:17:46 r, 00.00m,0000598094Hz,0000000000c,0000000.000s, 011.9C,00002191
2021-01-02 13:27:44 r, 00.00m,0000598157Hz,0000000000c,0000000.000s, 011.9C,00002191
2021-01-02 13:37:44 r, 00.00m,0000598297Hz,0000000000c,0000000.000s, 011.9C,00002191
2021-01-02 13:47:47 r, 00.00m,0000598150Hz,0000000000c,0000000.000s, 011.6C,00002191
2021-01-02 13:57:44 r, 00.00m,0000598177Hz,0000000000c,0000000.000s, 011.2C,00002191
2021-01-02 14:07:44 r, 00.00m,0000598225Hz,0000000000c,0000000.000s, 011.2C,00002191
2021-01-02 14:17:47 r, 00.00m,0000598236Hz,0000000000c,0000000.000s, 011.2C,00002191
2021-01-02 14:27:44 r, 00.00m,0000598255Hz,0000000000c,0000000.000s, 011.2C,00002191
2021-01-02 14:37:44 r, 00.00m,0000598250Hz,0000000000c,0000000.000s, 011.2C,00002191
2021-01-02 14:47:45 r, 00.00m,0000598217Hz,0000000000c,0000000.000s, 011.6C,00002191
2021-01-02 14:57:44 r, 00.00m,0000598270Hz,0000000000c,0000000.000s, 011.6C,00002191
2021-01-02 15:07:44 r, 00.00m,0000598234Hz,0000000000c,0000000.000s, 011.6C,00002191
2021-01-02 15:17:45 r, 00.00m,0000598188Hz,0000000000c,0000000.000s, 011.2C,00002191
2021-01-02 15:27:44 r, 00.00m,0000598254Hz,0000000000c,0000000.000s, 011.6C,00002191
2021-01-02 15:37:44 r, 00.00m,0000598254Hz,0000000000c,0000000.000s, 011.2C,00002191
2021-01-02 15:47:46 r, 00.00m,0000598285Hz,0000000000c,0000000.000s, 011.2C,00002191
2021-01-02 15:57:44 r, 00.00m,0000496995Hz,0000000000c,0000000.000s, 010.9C,00002191
2021-01-02 16:07:44 r, 00.00m,0000419669Hz,0000000000c,0000000.000s, 010.6C,00002191
2021-01-02 16:17:47 r, 06.21m,0000276577Hz,0000000000c,0000000.000s, 010.3C,00002191
2021-01-02 16:27:44 r, 06.84m,0000156351Hz,0000000000c,0000000.000s, 009.9C,00002191
2021-01-02 16:37:44 r, 07.56m,0000080790Hz,0000000000c,0000000.000s, 009.6C,00002191
2021-01-02 16:47:47 r, 08.48m,0000034429Hz,0000000000c,0000000.000s, 009.3C,00002191
2021-01-02 16:57:45 r, 09.84m,0000009848Hz,0000000000c,0000000.000s, 009.0C,00002191
2021-01-02 17:07:44 r, 11.39m,0000002362Hz,0000000000c,0000000.000s, 009.0C,00002191
2021-01-02 17:17:45 r, 13.12m,0000000478Hz,0000000000c,0000000.000s, 009.0C,00002191
2021-01-02 17:27:44 r, 14.89m,0000000093Hz,0000004965c,0000000.011s, 009.3C,00002191
2021-01-02 17:37:44 r, 16.50m,0000000021Hz,0000021893c,0000000.048s, 009.3C,00002191
2021-01-02 17:47:45 r, 17.54m,0000000008Hz,0000056430c,0000000.122s, 009.6C,00002191
2021-01-02 17:57:44 r, 17.92m,0000000006Hz,0000080353c,0000000.174s, 009.6C,00002191
2021-01-02 18:07:44 r, 17.95m,0000000006Hz,0000082803c,0000000.180s, 009.6C,00002191
2021-01-02 18:17:46 r, 17.96m,0000000006Hz,0000083142c,0000000.180s, 009.6C,00002191
2021-01-02 18:27:44 r, 17.79m,0000000006Hz,0000071523c,0000000.155s, 009.9C,00002191
2021-01-02 18:37:44 r, 18.16m,0000000004Hz,0000099424c,0000000.216s, 009.9C,00002191
2021-01-02 18:47:47 r, 18.06m,0000000005Hz,0000091376c,0000000.198s, 009.9C,00002191
2021-01-02 18:57:45 r, 18.23m,0000000005Hz,0000106364c,0000000.231s, 009.6C,00002191
2021-01-02 19:07:44 r, 17.90m,0000000006Hz,0000078913c,0000000.171s, 009.9C,00002191
2021-01-02 19:17:47 r, 17.68m,0000000007Hz,0000064182c,0000000.139s, 009.9C,00002191
2021-01-02 19:27:45 r, 17.60m,0000000008Hz,0000059415c,0000000.129s, 009.9C,00002191
2021-01-02 19:37:44 r, 17.82m,0000000006Hz,0000073365c,0000000.159s, 009.9C,00002191
2021-01-02 19:47:45 r, 17.75m,0000000006Hz,0000068814c,0000000.149s, 009.9C,00002191
2021-01-02 19:57:47 r, 17.39m,0000000009Hz,0000049053c,0000000.106s, 009.9C,00002191
2021-01-02 20:07:44 r, 17.45m,0000000008Hz,0000052667c,0000000.114s, 010.3C,00002191
2021-01-02 20:17:46 r, 17.32m,0000000010Hz,0000046497c,0000000.101s, 010.3C,00002191
2021-01-02 20:27:45 r, 17.55m,0000000008Hz,0000057397c,0000000.125s, 010.3C,00002191
2021-01-02 20:37:44 r, 17.51m,0000000009Hz,0000055615c,0000000.121s, 010.6C,00002191
2021-01-02 20:47:47 r, 17.08m,0000000012Hz,0000037164c,0000000.081s, 010.3C,00002191
2021-01-02 20:57:45 r, 16.86m,0000000015Hz,0000030283c,0000000.066s, 010.3C,00002191
2021-01-02 21:07:44 r, 16.98m,0000000013Hz,0000034192c,0000000.074s, 010.3C,00002191
2021-01-02 21:17:47 r, 16.89m,0000000015Hz,0000031279c,0000000.068s, 010.3C,00002191
2021-01-02 21:27:45 r, 16.94m,0000000014Hz,0000032815c,0000000.071s, 010.3C,00002191
2021-01-02 21:37:44 r, 16.94m,0000000014Hz,0000032832c,0000000.071s, 010.3C,00002191
2021-01-02 21:47:45 r, 16.84m,0000000015Hz,0000029925c,0000000.065s, 010.6C,00002191
2021-01-02 21:57:46 r, 17.19m,0000000012Hz,0000041165c,0000000.089s, 010.6C,00002191
2021-01-02 22:07:44 r, 17.01m,0000000013Hz,0000035149c,0000000.076s, 010.6C,00002191
2021-01-02 22:17:46 r, 17.25m,0000000011Hz,0000043740c,0000000.095s, 010.3C,00002191
2021-01-02 22:27:45 r, 17.69m,0000000007Hz,0000064792c,0000000.141s, 010.3C,00002191
2021-01-02 22:37:44 r, 17.45m,0000000009Hz,0000052302c,0000000.114s, 010.3C,00002191
2021-01-02 22:47:45 r, 17.70m,0000000007Hz,0000065298c,0000000.142s, 010.3C,00002191
2021-01-02 22:57:47 r, 18.57m,0000000003Hz,0000145885c,0000000.317s, 009.9C,00002191
2021-01-02 23:07:44 r, 19.17m,0000000001Hz,0000252306c,0000000.548s, 009.9C,00002191
2021-01-02 23:17:47 r, 19.21m,0000000002Hz,0000264179c,0000000.573s, 009.6C,00002191
2021-01-02 23:27:45 r, 19.17m,0000000002Hz,0000252355c,0000000.548s, 009.6C,00002191
2021-01-02 23:37:45 r, 19.11m,0000000002Hz,0000238056c,0000000.517s, 009.3C,00002191
2021-01-02 23:47:47 r, 19.05m,0000000002Hz,0000225615c,0000000.490s, 009.3C,00002191
2021-01-02 23:57:45 r, 18.96m,0000000002Hz,0000208663c,0000000.453s, 009.3C,00002191
